Weather History for LEVD - March, 2013

Change the Weather History Date:

Thursday, March 7, 2013

  Actual Average Record
Temperature  
Mean Temperature 52 °F -  
Max Temperature 60 °F - - ()
Min Temperature 44 °F - - ()
Degree Days  
Heating Degree Days 13    
Growing Degree Days 2 (Base 50)    
Moisture  
Dew Point 48 °F    
Average Humidity 90    
Maximum Humidity 100    
Minimum Humidity 67    
Precipitation  
Precipitation 0.00 in - - ()
Sea Level Pressure  
Sea Level Pressure 29.46 in    
Wind  
Wind Speed 15 mph ()    
Max Wind Speed 37 mph    
Max Gust Speed 56 mph    
Visibility 5.6 miles    
Events Rain , Thunderstorm    
T = Trace of Precipitation, MM = Missing Value Source: Averaged Metar Reports

Daily Weather History Graph

Daily Weather History Graph

Search for Another Location

Airport or City:

Trip Planner

Search our weather history database for the weather conditions in past years. The results will help you decide how hot, cold, wet, or windy it might be!

Date:

Astronomy

Mar. 07, 2013 Rise Set
Actual Time 7:44 AM CET 7:16 PM CET
Civil Twilight 7:16 AM CET 7:44 PM CET
Nautical Twilight 6:44 AM CET 8:16 PM CET
Astronomical Twilight 6:12 AM CET 8:49 PM CET
Moon 4:36 AM CET (3/7) 2:46 PM CET (3/7)
Length of Visible Light 12h 27m
Length of Day
11h 32m
Waning Crescent, 22% of the Moon is Illuminated
Mar 7
Waning Crescent
Mar 11
New
Mar 19
First Quarter
Mar 27
Full
Apr 3
Last Quarter

Hourly Weather History & Observations

Time (CET) Temp. Windchill Dew Point Humidity Pressure Visibility Wind Dir Wind Speed Gust Speed Precip Events Conditions
7:00 AM 46.4 °F 41.1 °F 46.4 °F 100% 29.56 in 6.2 mi SW 11.5 mph - N/A   Scattered Clouds
7:30 AM 46.4 °F 41.9 °F 46.4 °F 100% 29.56 in 6.2 mi SSW 9.2 mph - N/A   Mostly Cloudy
8:00 AM 46.4 °F 42.9 °F 46.4 °F 100% 29.56 in 6.2 mi South 6.9 mph - N/A   Mostly Cloudy
8:30 AM 46.4 °F 42.4 °F 46.4 °F 100% 29.53 in 6.2 mi South 8.1 mph - N/A Rain Light Rain
9:00 AM 48.2 °F - 48.2 °F 100% 29.53 in 6.2 mi South 10.4 mph - N/A Rain Light Rain
9:30 AM 48.2 °F - 48.2 °F 100% 29.50 in 6.2 mi South 8.1 mph - N/A   Mostly Cloudy
10:00 AM 50.0 °F - 50.0 °F 100% 29.50 in 6.2 mi South 10.4 mph - N/A   Mostly Cloudy
10:30 AM 50.0 °F - 48.2 °F 94% 29.50 in 6.2 mi SSE 11.5 mph - N/A   Mostly Cloudy
11:00 AM 50.0 °F - 48.2 °F 94% 29.50 in 6.2 mi South 8.1 mph - N/A Rain Rain
11:30 AM 51.8 °F - 50.0 °F 94% 29.47 in 6.2 mi SSE 11.5 mph - N/A Rain Light Rain
12:00 PM 51.8 °F - 50.0 °F 94% 29.47 in 3.7 mi South 11.5 mph - N/A Rain Rain
12:30 PM 51.8 °F - 51.8 °F 100% 29.44 in 2.2 mi South 13.8 mph - N/A Rain Rain
1:00 PM 51.8 °F - 51.8 °F 100% 29.44 in 3.7 mi South 20.7 mph 32.2 mph N/A Rain Rain
1:30 PM 55.4 °F - 53.6 °F 94% 29.42 in 6.2 mi SSW 20.7 mph 35.7 mph N/A   Mostly Cloudy
2:00 PM 57.2 °F - 51.8 °F 82% 29.42 in 6.2 mi SW 28.8 mph 41.4 mph N/A   Mostly Cloudy
2:30 PM 60.8 °F - 50.0 °F 68% 29.39 in 6.2 mi SW 29.9 mph 42.6 mph N/A   Partly Cloudy
3:00 PM 59.0 °F - 48.2 °F 67% 29.39 in 6.2 mi SW 36.8 mph 50.6 mph N/A   Partly Cloudy
3:30 PM 57.2 °F - 48.2 °F 72% 29.39 in 6.2 mi SW 29.9 mph 44.9 mph N/A   Scattered Clouds
4:00 PM 57.2 °F - 50.0 °F 77% 29.36 in 6.2 mi SW 27.6 mph - N/A   Partly Cloudy
4:08 PM 55.4 °F - 48.2 °F 77% 29.39 in 3.1 mi SW 28.8 mph 40.3 mph N/A Rain Rain Showers
4:30 PM 50.0 °F - 46.4 °F 87% 29.39 in 6.2 mi West 32.2 mph 44.9 mph N/A   Mostly Cloudy
4:33 PM 50.0 °F - 46.4 °F 87% 29.42 in 1.9 mi West 34.5 mph 56.4 mph N/A Rain , Thunderstorm Rain Showers
5:30 PM 51.8 °F - 48.2 °F 88% 29.39 in 6.2 mi WSW 25.3 mph 36.8 mph N/A   Scattered Clouds
6:00 PM 51.8 °F - 48.2 °F 88% 29.42 in 6.2 mi WSW 25.3 mph - N/A   Mostly Cloudy
6:10 PM 51.8 °F - 48.2 °F 88% 29.42 in 3.7 mi WSW 26.5 mph 39.1 mph N/A Rain Rain Showers
6:30 PM 50.0 °F - 48.2 °F 94% 29.44 in 6.2 mi WSW 27.6 mph 39.1 mph N/A   Mostly Cloudy
7:00 PM 48.2 °F - 44.6 °F 87% 29.47 in 6.2 mi West 33.4 mph 44.9 mph N/A Rain Light Rain
7:30 PM 46.4 °F 37.7 °F 44.6 °F 93% 29.47 in 6.2 mi West 26.5 mph - N/A   Partly Cloudy
8:00 PM 46.4 °F 37.9 °F 42.8 °F 87% 29.50 in 6.2 mi West 25.3 mph - N/A   Partly Cloudy
8:30 PM 44.6 °F 36.9 °F 42.8 °F 93% 29.53 in 6.2 mi West 18.4 mph - N/A   Scattered Clouds
9:30 PM 44.6 °F 36.1 °F 42.8 °F 93% 29.59 in 6.2 mi West 21.9 mph - N/A   Mostly Cloudy